QPF
0.07 0.11 0.13 0.13 0.15 0.17 0.16 0.12 0.08 0.06 0.07 0.09 0.12 0.18 0.18 0.13 0.13 0.13 0.12 0.14 0.16 0.13 0.09 0.06 0.04 0.03 0.03 0.03 0.03 0.03 0.02 0.02 0.02 0.01 0.01 0.01 0.01 0.01 0.01 0.01 0.01 0.01 0.02
0.14 0.22 0.20 0.18 0.19 0.19 0.15 0.18 0.17 0.16 0.12 0.11 0.16 0.22 0.24 0.20 0.20 0.19 0.17 0.14 0.15 0.14 0.10 0.07 0.06 0.06 0.05 0.04 0.03 0.02 0.01 0.02 0.01 0.01 0.01 0.01 0.01 0.01 0.01 0.01 0.01 0.01 0.01
0.13 0.15 0.21 0.24 0.26 0.24 0.16 0.15 0.25 0.28 0.21 0.14 0.15 0.22 0.28 0.24 0.22 0.20 0.23 0.18 0.15 0.14 0.11 0.08 0.09 0.08 0.06 0.05 0.05 0.03 0.03 0.02 0.01 0.01 0.01 0.01 0.01 0.01 0.01 0.01 0.01 0.01 0.01
0.13 0.14 0.16 0.20 0.21 0.16 0.16 0.19 0.24 0.28 0.27 0.22 0.19 0.19 0.22 0.27 0.22 0.21 0.22 0.22 0.18 0.13 0.11 0.09 0.08 0.06 0.06 0.07 0.07 0.07 0.07 0.05 0.03 0.02 0.02 0.02 0.02 0.02 0.02 0.01 0.01 0.01 0.01
0.12 0.11 0.13 0.13 0.15 0.14 0.14 0.19 0.25 0.33 0.29 0.25 0.21 0.17 0.17 0.21 0.24 0.20 0.21 0.25 0.20 0.12 0.08 0.07 0.06 0.06 0.07 0.08 0.10 0.11 0.11 0.06 0.04 0.03 0.03 0.03 0.03 0.02 0.01 0.01 0.01 0.01 0.02
0.12 0.11 0.10 0.09 0.09 0.11 0.14 0.16 0.16 0.21 0.26 0.23 0.19 0.17 0.17 0.17 0.19 0.23 0.19 0.16 0.14 0.09 0.06 0.07 0.06 0.06 0.07 0.07 0.11 0.12 0.11 0.08 0.05 0.03 0.03 0.03 0.02 0.01 0.01 0.01 0.01 0.01 0.01
0.08 0.09 0.08 0.08 0.07 0.08 0.12 0.14 0.16 0.20 0.18 0.16 0.16 0.15 0.15 0.15 0.15 0.17 0.19 0.16 0.13 0.09 0.07 0.06 0.06 0.06 0.08 0.09 0.10 0.11 0.12 0.12 0.08 0.05 0.03 0.03 0.03 0.03 0.03 0.02 0.02 0.01 0.01
0.06 0.06 0.07 0.07 0.07 0.08 0.10 0.11 0.13 0.13 0.12 0.12 0.13 0.15 0.14 0.14 0.13 0.13 0.15 0.14 0.12 0.10 0.08 0.06 0.06 0.07 0.08 0.09 0.10 0.10 0.11 0.11 0.09 0.07 0.06 0.05 0.04 0.03 0.02 0.02 0.02 0.02 0.01
0.05 0.05 0.05 0.06 0.07 0.06 0.07 0.09 0.10 0.11 0.13 0.16 0.15 0.14 0.14 0.13 0.13 0.12 0.11 0.11 0.11 0.12 0.10 0.08 0.06 0.06 0.07 0.09 0.11 0.11 0.08 0.05 0.05 0.05 0.04 0.04 0.04 0.03 0.03 0.02 0.02 0.02 0.02
0.05 0.05 0.04 0.05 0.05 0.05 0.07 0.08 0.09 0.10 0.12 0.16 0.18 0.19 0.18 0.15 0.15 0.15 0.14 0.13 0.13 0.13 0.13 0.11 0.10 0.09 0.11 0.11 0.11 0.13 0.10 0.06 0.04 0.03 0.02 0.02 0.02 0.02 0.02 0.01 0.01 0.01 0.01
0.04 0.03 0.03 0.04 0.05 0.06 0.05 0.06 0.08 0.10 0.10 0.10 0.12 0.15 0.17 0.17 0.15 0.13 0.14 0.15 0.15 0.14 0.13 0.12 0.11 0.11 0.13 0.15 0.12 0.11 0.09 0.07 0.04 0.02 0.01 0.01 0.02 0.02 0.02 0.02 0.02 0.01 0.01
0.03 0.03 0.03 0.04 0.06 0.07 0.08 0.08 0.10 0.12 0.10 0.09 0.10 0.12 0.13 0.14 0.13 0.13 0.13 0.13 0.14 0.14 0.13 0.11 0.11 0.12 0.13 0.14 0.14 0.13 0.09 0.07 0.05 0.03 0.03 0.02 0.02 0.02 0.02 0.02 0.02 0.01 0.01
0.04 0.03 0.03 0.03 0.05 0.07 0.09 0.11 0.13 0.12 0.10 0.10 0.11 0.11 0.14 0.14 0.14 0.16 0.18 0.19 0.17 0.15 0.13 0.12 0.09 0.08 0.09 0.10 0.12 0.11 0.07 0.06 0.05 0.05 0.04 0.04 0.03 0.03 0.02 0.02 0.02 0.02 0.01
0.03 0.03 0.02 0.03 0.04 0.05 0.07 0.09 0.12 0.13 0.11 0.10 0.10 0.13 0.17 0.17 0.16 0.17 0.19 0.22 0.25 0.24 0.17 0.13 0.12 0.09 0.09 0.09 0.10 0.08 0.06 0.07 0.07 0.06 0.06 0.04 0.03 0.02 0.02 0.02 0.01 0.01 0.01
0.03 0.02 0.01 0.02 0.02 0.03 0.04 0.07 0.09 0.09 0.08 0.08 0.08 0.11 0.15 0.20 0.22 0.23 0.26 0.26 0.26 0.28 0.24 0.18 0.16 0.15 0.13 0.11 0.12 0.08 0.07 0.08 0.07 0.06 0.04 0.03 0.02 0.01 0.01 0.01 0.00 0.00 0.00
0.03 0.02 0.02 0.01 0.02 0.02 0.03 0.04 0.07 0.07 0.06 0.05 0.06 0.09 0.13 0.18 0.23 0.28 0.31 0.29 0.27 0.25 0.23 0.20 0.17 0.16 0.14 0.12 0.13 0.10 0.08 0.08 0.06 0.05 0.04 0.03 0.02 0.01 0.00 0.00 0.00 0.00 0.00
0.02 0.02 0.02 0.02 0.02 0.02 0.03 0.04 0.04 0.04 0.04 0.05 0.06 0.08 0.11 0.16 0.21 0.26 0.29 0.29 0.26 0.21 0.20 0.20 0.17 0.14 0.12 0.11 0.12 0.09 0.07 0.06 0.04 0.03 0.02 0.01 0.01 0.00 0.00 0.00 0.00 0.00 0.00
0.01 0.01 0.01 0.02 0.03 0.03 0.03 0.04 0.03 0.04 0.03 0.03 0.05 0.08 0.12 0.14 0.16 0.17 0.18 0.17 0.15 0.12 0.13 0.15 0.16 0.15 0.13 0.13 0.12 0.08 0.06 0.04 0.02 0.02 0.01 0.01 0.00 0.00 0.00 0.00 0.00 0.00 0.00
0.01 0.01 0.01 0.02 0.02 0.03 0.04 0.05 0.05 0.04 0.04 0.04 0.06 0.07 0.10 0.11 0.11 0.11 0.11 0.10 0.10 0.10 0.10 0.11 0.13 0.13 0.13 0.12 0.10 0.07 0.05 0.03 0.02 0.01 0.00 0.00 0.00 0.00 0.00 0.00 0.00 0.00 0.00
0.01 0.01 0.01 0.01 0.02 0.03 0.04 0.06 0.07 0.06 0.04 0.04 0.05 0.06 0.07 0.07 0.07 0.06 0.06 0.06 0.07 0.07 0.08 0.08 0.07 0.08 0.08 0.07 0.07 0.06 0.04 0.02 0.01 0.01 0.00 0.00 0.00 0.00 0.00 0.00 0.00 0.00 0.00
0.02 0.02 0.02 0.02 0.02 0.03 0.05 0.06 0.07 0.08 0.07 0.05 0.04 0.04 0.04 0.05 0.05 0.05 0.04 0.04 0.04 0.05 0.05 0.05 0.05 0.05 0.05 0.05 0.05 0.04 0.02 0.01 0.01 0.01 0.01 0.01 0.00 0.00 0.00 0.00 0.00 0.00 0.00
0.02 0.02 0.02 0.02 0.03 0.04 0.06 0.07 0.06 0.08 0.08 0.05 0.04 0.04 0.03 0.03 0.03 0.03 0.04 0.03 0.03 0.03 0.03 0.03 0.03 0.03 0.03 0.03 0.02 0.02 0.01 0.01 0.00 0.00 0.00 0.00 0.00 0.00 0.00 0.00 0.00 0.00 0.00
0.03 0.04 0.04 0.04 0.05 0.05 0.06 0.06 0.06 0.08 0.08 0.06 0.04 0.03 0.03 0.03 0.03 0.02 0.02 0.02 0.02 0.02 0.02 0.02 0.02 0.02 0.02 0.01 0.01 0.01 0.00 0.00 0.00 0.00 0.00 0.00 0.00 0.00 0.00 0.00 0.00 0.00 0.00
0.04 0.04 0.05 0.05 0.06 0.07 0.08 0.06 0.05 0.05 0.06 0.06 0.05 0.04 0.04 0.04 0.03 0.03 0.02 0.02 0.02 0.02 0.02 0.01 0.01 0.01 0.01 0.01 0.00 0.00 0.01 0.00 0.00 0.00 0.00 0.00 0.00 0.00 0.00 0.00 0.00 0.00 0.00
0.04 0.04 0.05 0.06 0.06 0.06 0.07 0.05 0.04 0.03 0.04 0.04 0.04 0.05 0.04 0.03 0.03 0.03 0.02 0.02 0.02 0.01 0.01 0.01 0.01 0.01 0.00 0.00 0.00 0.00 0.00 0.00 0.00 0.00 0.00 0.00 0.00 0.01 0.00 0.00 0.00 0.00 0.00
0.05 0.04 0.04 0.05 0.05 0.05 0.04 0.03 0.03 0.03 0.03 0.02 0.02 0.02 0.01 0.01 0.01 0.01 0.01 0.00 0.00 0.00 0.00 0.01 0.01 0.00 0.00 0.00 0.00 0.00 0.00 0.00 0.00 0.00 0.00 0.00 0.00 0.00 0.00 0.01 0.00 0.00 0.00
MSLP
1016.88 1016.98 1016.99 1016.97 1016.97 1017.04 1017.21 1017.49 1017.84 1018.23 1018.61 1018.95 1019.24 1019.46 1019.65 1019.81 1019.97 1020.13 1020.29 1020.43 1020.55 1020.63 1020.68 1020.71 1020.74 1020.79 1020.87 1020.99 1021.12 1021.23 1021.32 1021.35 1021.31 1021.21 1021.07 1020.94 1020.83 1020.78 1020.79 1020.86 1020.98 1021.12 1021.27
1016.54 1016.67 1016.73 1016.76 1016.80 1016.90 1017.10 1017.38 1017.74 1018.15 1018.57 1018.96 1019.31 1019.61 1019.86 1020.08 1020.27 1020.43 1020.58 1020.70 1020.79 1020.86 1020.91 1020.96 1021.03 1021.14 1021.27 1021.44 1021.61 1021.75 1021.86 1021.89 1021.86 1021.78 1021.66 1021.54 1021.46 1021.43 1021.46 1021.54 1021.67 1021.82 1021.96
1016.11 1016.29 1016.40 1016.48 1016.58 1016.72 1016.95 1017.26 1017.64 1018.07 1018.52 1018.97 1019.38 1019.74 1020.06 1020.33 1020.55 1020.73 1020.86 1020.96 1021.03 1021.08 1021.13 1021.20 1021.30 1021.45 1021.63 1021.84 1022.05 1022.23 1022.35 1022.41 1022.40 1022.34 1022.26 1022.17 1022.12 1022.11 1022.17 1022.27 1022.40 1022.55 1022.70
1015.64 1015.85 1016.01 1016.15 1016.30 1016.50 1016.75 1017.09 1017.49 1017.95 1018.44 1018.93 1019.41 1019.84 1020.22 1020.55 1020.81 1021.00 1021.14 1021.22 1021.27 1021.31 1021.35 1021.42 1021.54 1021.71 1021.93 1022.17 1022.41 1022.61 1022.77 1022.86 1022.88 1022.85 1022.80 1022.76 1022.74 1022.78 1022.85 1022.97 1023.11 1023.26 1023.41
1015.17 1015.39 1015.59 1015.78 1015.98 1016.22 1016.51 1016.88 1017.30 1017.78 1018.30 1018.84 1019.37 1019.87 1020.32 1020.70 1021.01 1021.24 1021.39 1021.47 1021.51 1021.53 1021.56 1021.63 1021.75 1021.93 1022.16 1022.42 1022.67 1022.90 1023.08 1023.20 1023.26 1023.28 1023.27 1023.27 1023.30 1023.36 1023.46 1023.59 1023.73 1023.88 1024.02
1014.73 1014.96 1015.18 1015.40 1015.64 1015.92 1016.24 1016.62 1017.06 1017.56 1018.10 1018.67 1019.24 1019.80 1020.32 1020.77 1021.14 1021.41 1021.59 1021.69 1021.73 1021.75 1021.78 1021.84 1021.95 1022.13 1022.35 1022.60 1022.86 1023.10 1023.30 1023.45 1023.55 1023.62 1023.66 1023.71 1023.77 1023.86 1023.97 1024.10 1024.25 1024.39 1024.52
1014.39 1014.60 1014.83 1015.08 1015.34 1015.64 1015.97 1016.35 1016.79 1017.28 1017.83 1018.41 1019.02 1019.62 1020.20 1020.71 1021.14 1021.47 1021.70 1021.85 1021.92 1021.96 1021.99 1022.05 1022.15 1022.32 1022.53 1022.77 1023.02 1023.27 1023.48 1023.66 1023.80 1023.90 1023.99 1024.08 1024.18 1024.28 1024.40 1024.53 1024.66 1024.79 1024.91
1014.19 1014.39 1014.61 1014.86 1015.12 1015.41 1015.73 1016.10 1016.50 1016.97 1017.50 1018.08 1018.69 1019.32 1019.94 1020.50 1021.00 1021.40 1021.70 1021.90 1022.04 1022.12 1022.18 1022.26 1022.37 1022.53 1022.73 1022.96 1023.21 1023.45 1023.67 1023.87 1024.04 1024.18 1024.31 1024.43 1024.55 1024.66 1024.78 1024.89 1025.00 1025.11 1025.21
1014.18 1014.36 1014.57 1014.79 1015.03 1015.29 1015.57 1015.88 1016.24 1016.65 1017.12 1017.66 1018.25 1018.88 1019.51 1020.12 1020.67 1021.15 1021.53 1021.83 1022.04 1022.20 1022.33 1022.46 1022.60 1022.77 1022.98 1023.20 1023.44 1023.68 1023.91 1024.12 1024.32 1024.49 1024.65 1024.79 1024.92 1025.04 1025.15 1025.24 1025.32 1025.40 1025.47
1014.38 1014.54 1014.71 1014.89 1015.08 1015.28 1015.49 1015.72 1015.98 1016.30 1016.69 1017.16 1017.69 1018.28 1018.91 1019.54 1020.14 1020.69 1021.17 1021.57 1021.90 1022.18 1022.41 1022.62 1022.83 1023.05 1023.27 1023.51 1023.75 1023.99 1024.22 1024.44 1024.65 1024.84 1025.02 1025.18 1025.32 1025.44 1025.53 1025.60 1025.65 1025.70 1025.74
1014.76 1014.89 1015.01 1015.13 1015.25 1015.35 1015.46 1015.58 1015.73 1015.93 1016.21 1016.57 1017.02 1017.55 1018.14 1018.77 1019.41 1020.03 1020.61 1021.14 1021.61 1022.02 1022.39 1022.72 1023.03 1023.32 1023.59 1023.86 1024.11 1024.35 1024.58 1024.80 1025.01 1025.22 1025.40 1025.58 1025.72 1025.84 1025.92 1025.97 1026.00 1026.02 1026.03
1015.27 1015.36 1015.42 1015.46 1015.47 1015.46 1015.44 1015.43 1015.45 1015.52 1015.67 1015.92 1016.26 1016.71 1017.26 1017.87 1018.53 1019.21 1019.89 1020.54 1021.16 1021.74 1022.26 1022.74 1023.17 1023.55 1023.89 1024.20 1024.47 1024.71 1024.94 1025.15 1025.36 1025.57 1025.76 1025.94 1026.09 1026.21 1026.29 1026.34 1026.35 1026.35 1026.34
1015.84 1015.87 1015.85 1015.78 1015.68 1015.54 1015.39 1015.25 1015.13 1015.08 1015.10 1015.22 1015.47 1015.83 1016.31 1016.90 1017.57 1018.30 1019.07 1019.85 1020.61 1021.35 1022.04 1022.67 1023.24 1023.73 1024.14 1024.49 1024.78 1025.03 1025.24 1025.44 1025.64 1025.83 1026.02 1026.20 1026.37 1026.50 1026.59 1026.64 1026.66 1026.65 1026.63
1016.39 1016.34 1016.22 1016.04 1015.81 1015.55 1015.28 1015.01 1014.78 1014.61 1014.53 1014.56 1014.71 1015.00 1015.42 1015.97 1016.65 1017.42 1018.26 1019.14 1020.04 1020.92 1021.77 1022.54 1023.23 1023.82 1024.30 1024.70 1025.00 1025.24 1025.44 1025.62 1025.79 1025.97 1026.15 1026.33 1026.50 1026.65 1026.76 1026.84 1026.87 1026.87 1026.86
1016.84 1016.70 1016.47 1016.18 1015.84 1015.47 1015.10 1014.75 1014.44 1014.20 1014.04 1014.00 1014.09 1014.32 1014.70 1015.23 1015.90 1016.69 1017.58 1018.54 1019.54 1020.53 1021.49 1022.38 1023.17 1023.84 1024.38 1024.80 1025.11 1025.34 1025.51 1025.65 1025.79 1025.95 1026.11 1026.29 1026.47 1026.64 1026.78 1026.88 1026.94 1026.97 1026.97
1017.14 1016.91 1016.58 1016.20 1015.77 1015.34 1014.91 1014.51 1014.17 1013.90 1013.73 1013.67 1013.73 1013.93 1014.28 1014.79 1015.44 1016.23 1017.14 1018.14 1019.19 1020.26 1021.29 1022.24 1023.09 1023.81 1024.38 1024.81 1025.12 1025.32 1025.46 1025.57 1025.67 1025.79 1025.94 1026.10 1026.28 1026.46 1026.63 1026.76 1026.85 1026.91 1026.93
1017.28 1016.97 1016.58 1016.13 1015.67 1015.21 1014.78 1014.40 1014.08 1013.84 1013.69 1013.65 1013.72 1013.92 1014.26 1014.74 1015.37 1016.15 1017.04 1018.03 1019.08 1020.16 1021.20 1022.18 1023.04 1023.77 1024.34 1024.77 1025.06 1025.23 1025.34 1025.41 1025.47 1025.55 1025.67 1025.81 1025.98 1026.16 1026.34 1026.49 1026.60 1026.69 1026.73
1017.30 1016.94 1016.52 1016.07 1015.62 1015.19 1014.81 1014.49 1014.23 1014.06 1013.98 1013.98 1014.09 1014.31 1014.64 1015.11 1015.71 1016.43 1017.28 1018.22 1019.22 1020.25 1021.26 1022.21 1023.05 1023.76 1024.31 1024.72 1024.98 1025.14 1025.21 1025.25 1025.27 1025.32 1025.39 1025.51 1025.65 1025.81 1025.97 1026.11 1026.24 1026.33 1026.39
1017.27 1016.90 1016.49 1016.08 1015.69 1015.34 1015.05 1014.82 1014.67 1014.59 1014.59 1014.66 1014.82 1015.06 1015.40 1015.84 1016.39 1017.05 1017.82 1018.67 1019.59 1020.54 1021.47 1022.35 1023.13 1023.80 1024.32 1024.70 1024.94 1025.08 1025.14 1025.15 1025.15 1025.16 1025.19 1025.26 1025.35 1025.47 1025.59 1025.71 1025.81 1025.89 1025.95
1017.25 1016.92 1016.58 1016.25 1015.95 1015.71 1015.53 1015.42 1015.38 1015.40 1015.48 1015.62 1015.82 1016.09 1016.42 1016.82 1017.31 1017.90 1018.57 1019.31 1020.12 1020.95 1021.78 1022.57 1023.28 1023.89 1024.37 1024.73 1024.97 1025.10 1025.15 1025.16 1025.14 1025.12 1025.11 1025.13 1025.16 1025.21 1025.27 1025.33 1025.38 1025.43 1025.46
1017.31 1017.06 1016.82 1016.60 1016.42 1016.30 1016.24 1016.24 1016.30 1016.40 1016.56 1016.75 1016.98 1017.25 1017.56 1017.93 1018.36 1018.85 1019.42 1020.04 1020.72 1021.43 1022.14 1022.83 1023.46 1024.02 1024.47 1024.81 1025.05 1025.20 1025.26 1025.28 1025.25 1025.21 1025.17 1025.13 1025.10 1025.08 1025.06 1025.04 1025.02 1025.00 1024.98
1017.52 1017.37 1017.24 1017.14 1017.08 1017.07 1017.11 1017.19 1017.32 1017.49 1017.69 1017.91 1018.15 1018.42 1018.71 1019.03 1019.39 1019.81 1020.27 1020.78 1021.33 1021.92 1022.52 1023.11 1023.67 1024.17 1024.59 1024.93 1025.18 1025.35 1025.44 1025.47 1025.46 1025.41 1025.34 1025.26 1025.16 1025.07 1024.96 1024.86 1024.75 1024.65 1024.56
1017.89 1017.85 1017.83 1017.83 1017.87 1017.94 1018.05 1018.19 1018.36 1018.55 1018.77 1019.00 1019.24 1019.49 1019.76 1020.04 1020.34 1020.68 1021.05 1021.46 1021.91 1022.38 1022.88 1023.39 1023.87 1024.32 1024.72 1025.06 1025.33 1025.52 1025.64 1025.70 1025.69 1025.65 1025.56 1025.45 1025.31 1025.14 1024.97 1024.78 1024.60 1024.41 1024.25
1018.42 1018.47 1018.54 1018.62 1018.72 1018.84 1018.98 1019.14 1019.32 1019.51 1019.72 1019.95 1020.18 1020.41 1020.65 1020.90 1021.16 1021.44 1021.74 1022.07 1022.43 1022.82 1023.23 1023.65 1024.07 1024.48 1024.85 1025.18 1025.45 1025.66 1025.81 1025.89 1025.90 1025.86 1025.78 1025.64 1025.47 1025.27 1025.04 1024.80 1024.55 1024.30 1024.07
1019.09 1019.20 1019.32 1019.45 1019.58 1019.71 1019.85 1020.00 1020.16 1020.34 1020.54 1020.75 1020.96 1021.19 1021.42 1021.65 1021.88 1022.12 1022.37 1022.64 1022.92 1023.24 1023.57 1023.92 1024.28 1024.64 1024.98 1025.29 1025.55 1025.76 1025.91 1026.00 1026.03 1026.00 1025.91 1025.78 1025.60 1025.38 1025.14 1024.86 1024.58 1024.29 1024.01
1019.85 1020.00 1020.14 1020.28 1020.40 1020.52 1020.64 1020.76 1020.90 1021.06 1021.24 1021.44 1021.65 1021.87 1022.10 1022.32 1022.54 1022.76 1022.98 1023.20 1023.43 1023.68 1023.95 1024.23 1024.53 1024.82 1025.11 1025.38 1025.61 1025.80 1025.94 1026.02 1026.05 1026.02 1025.94 1025.81 1025.64 1025.44 1025.20 1024.93 1024.65 1024.35 1024.04
Thickness
5729 5730 5730 5729 5728 5727 5726 5726 5724 5722 5720 5720 5720 5720 5720 5720 5720 5719 5719 5719 5718 5717 5715 5715 5714 5713 5711 5709 5708 5706 5704 5703 5702 5700 5699 5698 5696 5694 5693 5692 5690 5688 5687
5728 5726 5726 5726 5725 5724 5723 5722 5720 5717 5716 5716 5716 5717 5717 5717 5716 5715 5715 5715 5714 5714 5713 5712 5711 5709 5708 5706 5704 5703 5701 5699 5698 5697 5695 5694 5692 5690 5688 5686 5685 5683 5681
5726 5724 5723 5722 5721 5721 5720 5718 5716 5713 5712 5712 5712 5712 5712 5712 5711 5711 5710 5710 5709 5709 5709 5709 5707 5705 5704 5703 5701 5699 5697 5695 5694 5692 5691 5689 5687 5685 5683 5681 5679 5677 5675
5721 5720 5719 5718 5716 5716 5715 5713 5712 5710 5708 5708 5707 5707 5707 5707 5706 5707 5706 5705 5704 5704 5704 5704 5703 5701 5700 5698 5697 5695 5693 5691 5689 5687 5686 5684 5682 5680 5678 5675 5673 5671 5669
5717 5715 5714 5713 5712 5711 5711 5710 5708 5706 5703 5702 5701 5701 5700 5700 5700 5701 5700 5700 5700 5699 5699 5698 5698 5697 5695 5694 5693 5691 5689 5686 5684 5682 5680 5678 5676 5674 5671 5669 5666 5664 5661
5711 5710 5709 5708 5707 5706 5706 5705 5703 5701 5700 5698 5697 5695 5694 5694 5695 5694 5695 5695 5694 5694 5693 5693 5692 5691 5690 5689 5688 5686 5684 5681 5679 5677 5674 5672 5669 5667 5664 5661 5658 5656 5653
5705 5705 5704 5703 5703 5702 5701 5701 5698 5696 5694 5694 5690 5687 5686 5687 5687 5688 5689 5689 5688 5688 5688 5687 5686 5686 5685 5683 5682 5680 5678 5676 5673 5670 5667 5664 5662 5659 5657 5653 5650 5647 5644
5699 5699 5699 5698 5698 5697 5695 5694 5694 5691 5690 5690 5686 5681 5677 5677 5678 5680 5681 5682 5682 5682 5681 5680 5680 5679 5678 5677 5676 5674 5672 5669 5666 5663 5660 5657 5654 5651 5648 5645 5642 5638 5635
5693 5693 5693 5693 5693 5692 5690 5689 5689 5688 5685 5685 5685 5680 5674 5672 5671 5671 5673 5674 5675 5675 5674 5673 5672 5671 5671 5670 5669 5666 5664 5661 5659 5656 5652 5649 5646 5642 5639 5636 5633 5629 5626
5686 5686 5686 5687 5687 5686 5685 5685 5685 5684 5682 5679 5678 5679 5677 5675 5668 5664 5663 5665 5666 5667 5667 5666 5664 5663 5662 5662 5660 5658 5656 5653 5651 5647 5644 5640 5637 5633 5630 5626 5623 5620 5617
5677 5678 5678 5679 5679 5680 5680 5680 5680 5678 5677 5676 5674 5672 5670 5668 5668 5663 5657 5656 5656 5657 5658 5657 5657 5655 5654 5653 5651 5649 5647 5644 5641 5638 5635 5631 5627 5624 5620 5617 5613 5610 5607
5668 5669 5669 5670 5671 5671 5672 5673 5673 5672 5672 5671 5671 5670 5668 5664 5662 5660 5655 5651 5648 5646 5647 5647 5647 5646 5645 5643 5641 5639 5637 5635 5631 5628 5625 5622 5617 5614 5610 5606 5603 5599 5596
5658 5659 5660 5660 5661 5662 5663 5664 5665 5665 5666 5666 5665 5665 5665 5664 5662 5659 5654 5647 5641 5637 5636 5636 5636 5636 5635 5633 5631 5629 5626 5624 5621 5618 5615 5611 5607 5603 5600 5596 5593 5589 5586
5648 5649 5650 5651 5652 5654 5655 5656 5657 5658 5658 5659 5660 5660 5660 5660 5658 5656 5652 5646 5637 5631 5628 5627 5626 5626 5625 5623 5621 5618 5616 5614 5611 5608 5604 5600 5596 5593 5589 5586 5582 5579 5575
5639 5641 5642 5643 5644 5645 5647 5648 5649 5649 5649 5650 5652 5653 5653 5654 5653 5652 5650 5648 5641 5631 5623 5619 5617 5615 5615 5612 5610 5607 5605 5603 5600 5597 5593 5589 5586 5582 5579 5575 5572 5568 5564
5630 5632 5633 5634 5635 5636 5637 5639 5639 5640 5640 5641 5643 5645 5645 5645 5645 5644 5642 5641 5639 5634 5622 5615 5611 5608 5605 5602 5599 5597 5595 5592 5589 5586 5583 5579 5576 5573 5569 5565 5562 5559 5555
5620 5622 5623 5624 5626 5627 5628 5629 5630 5631 5632 5633 5634 5635 5635 5636 5635 5635 5634 5632 5629 5626 5618 5608 5603 5598 5594 5592 5589 5586 5584 5582 5579 5576 5573 5570 5566 5563 5560 5557 5553 5549 5546
5610 5611 5613 5614 5616 5617 5618 5619 5620 5621 5622 5624 5624 5625 5625 5625 5626 5625 5624 5622 5619 5617 5612 5602 5593 5588 5585 5583 5580 5578 5574 5572 5569 5567 5564 5561 5558 5555 5552 5548 5545 5541 5538
5599 5600 5602 5604 5605 5607 5608 5609 5611 5612 5613 5614 5615 5615 5615 5616 5616 5615 5613 5611 5609 5605 5601 5595 5586 5581 5577 5574 5572 5569 5566 5563 5561 5559 5556 5554 5551 5548 5544 5541 5538 5535 5531
5587 5589 5591 5593 5595 5597 5598 5600 5601 5602 5603 5604 5605 5606 5606 5606 5605 5604 5603 5601 5598 5594 5589 5584 5578 5573 5570 5567 5564 5560 5556 5555 5553 5552 5549 5547 5544 5541 5538 5535 5532 5529 5526
5576 5578 5581 5583 5585 5587 5588 5590 5591 5592 5593 5594 5595 5596 5596 5597 5596 5596 5594 5591 5589 5585 5581 5576 5570 5566 5562 5558 5555 5552 5549 5547 5545 5544 5542 5540 5538 5536 5533 5531 5528 5526 5523
5565 5568 5570 5572 5575 5576 5577 5580 5581 5582 5583 5583 5584 5585 5586 5586 5586 5586 5584 5583 5581 5578 5572 5568 5563 5559 5555 5552 5549 5547 5542 5539 5537 5538 5536 5534 5533 5531 5530 5528 5526 5523 5520
5555 5557 5559 5562 5563 5565 5567 5570 5571 5572 5572 5573 5573 5575 5576 5576 5576 5575 5574 5573 5571 5569 5568 5563 5558 5554 5551 5548 5545 5541 5537 5535 5533 5533 5530 5528 5527 5525 5526 5525 5523 5521 5518
5545 5547 5549 5552 5553 5555 5558 5560 5562 5562 5562 5562 5563 5564 5565 5565 5566 5566 5565 5563 5560 5559 5558 5556 5553 5550 5547 5545 5542 5538 5535 5531 5529 5528 5526 5522 5522 5521 5523 5522 5521 5518 5516
5536 5538 5540 5542 5544 5546 5549 5552 5553 5553 5552 5552 5553 5554 5555 5555 5556 5558 5557 5553 5551 5548 5548 5548 5546 5544 5542 5540 5537 5534 5529 5525 5522 5522 5522 5519 5517 5516 5517 5518 5518 5516 5514
5529 5531 5533 5534 5536 5538 5541 5543 5545 5545 5544 5543 5543 5545 5546 5547 5548 5549 5548 5546 5542 5540 5541 5539 5538 5537 5536 5534 5532 5530 5526 5521 5517 5516 5518 5516 5513 5512 5511 5513 5515 5515 5513